This is the latest recevied weather packets stored in our database for station/object N0QV. If no packets are shown the sender has not sent any weather packets the latest 10 day(s).
| Time | Temp. | Humidity | Pressure | Rain* | Wind** | Luminosity | Snow |
|---|---|---|---|---|---|---|---|
| 1777919674 | 17.22° C | 31% | 1002 hPa | 0 mm | - | 481 W/m² | - |
| 1777919069 | 17.22° C | 35% | 1002.1 hPa | 0 mm | - | 495 W/m² | - |
| 1777918766 | 17.22° C | 33% | 1002.1 hPa | 0 mm | - | 457 W/m² | - |
| 1777918463 | 17.22° C | 34% | 1001.8 hPa | 0 mm | - | 419 W/m² | - |
| 1777918162 | 17.78° C | 33% | 1001.6 hPa | 0 mm | - | 360 W/m² | - |
| 1777917860 | 17.22° C | 36% | 1001.7 hPa | 0 mm | - | 500 W/m² | - |
| 1777916953 | 17.22° C | 34% | 1001.6 hPa | 0 mm | - | 380 W/m² | - |
| 1777916347 | 17.22° C | 35% | 1001.2 hPa | 0 mm | - | 422 W/m² | - |
| 1777916043 | 17.22° C | 34% | 1001.3 hPa | 0 mm | - | 402 W/m² | - |
| 1777915741 | 17.22° C | 33% | 1001.3 hPa | 0 mm | - | 451 W/m² | - |
| 1777915437 | 17.78° C | 35% | 1001.1 hPa | 0 mm | - | 429 W/m² | - |
| 1777915133 | 17.22° C | 37% | 1001.2 hPa | 0 mm | - | 467 W/m² | - |
| 1777914224 | 17.22° C | 37% | 1001.1 hPa | 0 mm | - | 565 W/m² | - |
| 1777913921 | 17.78° C | 36% | 1001.1 hPa | 0 mm | - | 462 W/m² | - |
| 1777913617 | 17.78° C | 36% | 1001.2 hPa | 0 mm | - | 505 W/m² | - |
| 1777913313 | 17.78° C | 36% | 1001.2 hPa | 0 mm | - | 530 W/m² | - |
| 1777913011 | 17.78° C | 35% | 1001.1 hPa | 0 mm | - | 598 W/m² | - |
| 1777912707 | 17.22° C | 37% | 1000.9 hPa | 0 mm | - | 534 W/m² | - |
| 1777912403 | 17.22° C | 36% | 1001 hPa | 0 mm | - | 634 W/m² | - |
| 1777912099 | 17.78° C | 35% | 1001 hPa | 0 mm | - | 614 W/m² | - |
| 1777911795 | 17.22° C | 37% | 1000.8 hPa | 0 mm | - | 655 W/m² | - |
| 1777911492 | 17.22° C | 35% | 1001 hPa | 0 mm | - | 567 W/m² | - |
| 1777911189 | 17.22° C | 37% | 1000.8 hPa | 0 mm | - | 672 W/m² | - |
| 1777910583 | 17.22° C | 40% | 1000.6 hPa | 0 mm | - | 703 W/m² | - |
| 1777910280 | 16.67° C | 40% | 1000.7 hPa | 0 mm | - | 599 W/m² | - |
* Rain latest hour (hover to see other rain measurements)
** Current wind speed in m/s (hover to see current wind gust speed)